Regional Weather Roundup
Issued by NWS

Home | Current Version | Previous Version | Text Only | Print | Product List | Glossary On
Versions: 1 2 3 4 5 6 7 8 9 10 11 12 13 14 15 16 17 18 19 20 21 22 23 24 25 26 27 28 29 30 31 32 33 34 35 36 37 38 39 40 41 42 43 44 45 46 47 48 49 50
000
ASUS43 KBIS 110310
RWRND

NORTH DAKOTA REGIONAL WEATHER ROUNDUP
NATIONAL WEATHER SERVICE BISMARCK ND
900 PM CST SUN DEC 10 2017

NOTE: "FAIR" INDICATES FEW OR NO CLOUDS BELOW 12,000 FEET WITH NO
SIGNIFICANT WEATHER AND/OR OBSTRUCTIONS TO VISIBILITY.


NDZ001>003-009>011-017-110400-
NORTHWEST NORTH DAKOTA

CITY           SKY/WX    TMP DP  RH WIND       PRES   REMARKS
WILLISTON      MOCLDY    40  19  43 W20       29.98R
MINOT          CLOUDY    44  24  45 W18       29.86S
MINOT AFB      CLOUDY    41  25  53 W20       29.83F
$$

NDZ018>021-031>035-040>046-110400-
SOUTHWEST NORTH DAKOTA

CITY           SKY/WX    TMP DP  RH WIND       PRES   REMARKS
BISMARCK       CLOUDY    41  27  57 W6        29.93F
DICKINSON      CLEAR     35  19  52 W13       29.97F
GARRISON         N/A     40  22  48 W17       29.90F
HETTINGER ARPT CLEAR     37  16  42 W14       30.04F
$$

NDZ004>008-012>016-024-026-027-054-110400-
NORTHEAST NORTH DAKOTA

CITY           SKY/WX    TMP DP  RH WIND       PRES   REMARKS
GRAND FORKS    LGT SNOW  26  24  92 S13       29.84F FOG     WCI  15
GRND FRKS AFB  LGT SNOW  27  27 100 S10       29.82F FOG     WCI  17
DEVILS LAKE    CLOUDY    35  31  85 W12       29.81F
$$

NDZ022-023-025-028>030-036>039-047>053-110400-
SOUTHEAST NORTH DAKOTA

CITY           SKY/WX    TMP DP  RH WIND       PRES   REMARKS
FARGO          LGT SNOW  28  25  88 S13       29.89F FOG     WCI  17
JAMESTOWN      CLOUDY    38  30  73 W9        29.86F
$$





USA.gov is the U.S. government's official web portal to all federal, state and local government web resources and services.